| time (UTC) | temp F | wind direction | speed knots | gust knots | rain 1hr in | rain 24hr in | rain mn in | humidity % | barometer mb |
| 20260509065325 | 63 | 46 | 4.3 | 4.3 | 0.00 | 0.00 | 0.00 | 41 | 1008.8 |
| 20260509064821 | 64 | 36 | 2.6 | 2.6 | 0.00 | 0.00 | 0.00 | 39 | 1008.9 |
| 20260509064319 | 61 | 29 | 8.7 | 19.1 | 0.00 | 0.00 | 0.00 | 43 | 1008.7 |
| 20260509063817 | 62 | 66 | 4.3 | 4.3 | 0.00 | 0.00 | 0.00 | 42 | 1008.5 |
| 20260509063313 | 64 | 270 | 0.0 | 1.7 | 0.00 | 0.00 | 0.00 | 37 | 1008.4 |
| 20260509062810 | 65 | 301 | 1.7 | 2.6 | 0.00 | 0.00 | 0.00 | 36 | 1008.6 |
| 20260509062308 | 66 | 295 | 1.7 | 2.6 | 0.00 | 0.00 | 0.00 | 35 | 1008.6 |
| 20260509061804 | 66 | 0 | 0.0 | 2.6 | 0.00 | 0.00 | 0.00 | 35 | 1008.4 |
| 20260509061302 | 66 | 213 | 1.7 | 4.3 | 0.00 | 0.00 | 0.00 | 35 | 1008.4 |
| 20260509060759 | 66 | 292 | 2.6 | 3.5 | 0.00 | 0.00 | 0.00 | 34 | 1008.5 |
| 20260509060255 | 67 | 270 | 0.0 | 1.7 | 0.00 | 0.00 | 0.00 | 34 | 1008.5 |
| 20260509055751 | 67 | 285 | 0.0 | 1.7 | 0.00 | 0.00 | 0.00 | 33 | 1008.5 |
| 20260509055247 | 68 | 293 | 1.7 | 5.2 | 0.00 | 0.00 | 0.00 | 32 | 1008.4 |
| 20260509054744 | 68 | 285 | 3.5 | 5.2 | 0.00 | 0.00 | 0.00 | 32 | 1008.7 |
| 20260509054241 | 68 | 264 | 0.9 | 2.6 | 0.00 | 0.00 | 0.00 | 32 | 1008.6 |
| 20260509053739 | 68 | 352 | 0.0 | 2.6 | 0.00 | 0.00 | 0.00 | 32 | 1008.6 |
| 20260509053236 | 66 | 243 | 0.9 | 1.7 | 0.00 | 0.00 | 0.00 | 35 | 1008.8 |
| 20260509052734 | 65 | 110 | 1.7 | 2.6 | 0.00 | 0.00 | 0.00 | 37 | 1008.6 |
| 20260509052231 | 69 | 102 | 0.0 | 2.6 | 0.00 | 0.00 | 0.00 | 30 | 1008.6 |
| 20260509051729 | 70 | 225 | 2.6 | 4.3 | 0.00 | 0.00 | 0.00 | 30 | 1008.6 |
| 20260509051227 | 69 | 292 | 1.7 | 3.5 | 0.00 | 0.00 | 0.00 | 30 | 1008.6 |
| 20260509050723 | 69 | 279 | 1.7 | 3.5 | 0.00 | 0.00 | 0.00 | 30 | 1008.4 |
| 20260509050219 | 68 | 254 | 0.9 | 3.5 | 0.00 | 0.00 | 0.00 | 31 | 1008.4 |
| 20260509045717 | 68 | 285 | 0.9 | 2.6 | 0.00 | 0.00 | 0.00 | 33 | 1008.5 |
| 20260509045214 | 67 | 290 | 1.7 | 2.6 | 0.00 | 0.00 | 0.00 | 35 | 1008.7 |
| 20260509044711 | 67 | 278 | 0.9 | 2.6 | 0.00 | 0.00 | 0.00 | 36 | 1008.5 |
| 20260509044209 | 67 | 270 | 0.0 | 2.6 | 0.00 | 0.00 | 0.00 | 37 | 1008.6 |
| 20260509043705 | 66 | 279 | 0.0 | 2.6 | 0.00 | 0.00 | 0.00 | 40 | 1008.6 |
| 20260509043201 | 67 | 277 | 0.9 | 2.6 | 0.00 | 0.00 | 0.00 | 37 | 1008.7 |
| 20260509042657 | 67 | 290 | 1.7 | 2.6 | 0.00 | 0.00 | 0.00 | 37 | 1008.8 |
| 20260509042153 | 68 | 286 | 0.9 | 3.5 | 0.00 | 0.00 | 0.00 | 36 | 1008.6 |
| 20260509041650 | 69 | 292 | 1.7 | 2.6 | 0.00 | 0.00 | 0.00 | 34 | 1008.7 |
| 20260509041148 | 69 | 264 | 0.0 | 2.6 | 0.00 | 0.00 | 0.00 | 33 | 1008.4 |
| 20260509040646 | 70 | 243 | 1.7 | 2.6 | 0.00 | 0.00 | 0.00 | 31 | 1008.6 |
| 20260509040142 | 71 | 249 | 0.9 | 2.6 | 0.00 | 0.00 | 0.00 | 32 | 1008.6 |
| 20260509035639 | 71 | 255 | 0.9 | 2.6 | 0.00 | 0.00 | 0.00 | 32 | 1008.7 |
| 20260509035136 | 71 | 233 | 1.7 | 1.7 | 0.00 | 0.00 | 0.00 | 32 | 1008.6 |
| 20260509034634 | 71 | 240 | 0.0 | 1.7 | 0.00 | 0.00 | 0.00 | 33 | 1008.6 |
| 20260509034130 | 70 | 180 | 0.0 | 2.6 | 0.00 | 0.00 | 0.00 | 35 | 1008.5 |
| 20260509033627 | 70 | 243 | 0.0 | 1.7 | 0.00 | 0.00 | 0.00 | 38 | 1008.5 |
| 20260509033124 | 70 | 286 | 0.0 | 0.9 | 0.00 | 0.00 | 0.00 | 40 | 1008.4 |
| 20260509032622 | 71 | 250 | 1.7 | 1.7 | 0.00 | 0.00 | 0.00 | 38 | 1008.3 |
| 20260509032118 | 71 | 257 | 1.7 | 2.6 | 0.00 | 0.00 | 0.00 | 36 | 1008.4 |
| 20260509031617 | 71 | 233 | 1.7 | 1.7 | 0.00 | 0.00 | 0.00 | 31 | 1008.2 |
| 20260509031114 | 74 | 154 | 1.7 | 4.3 | 0.00 | 0.00 | 0.00 | 27 | 1008.2 |
| 20260509030612 | 76 | 194 | 2.6 | 3.5 | 0.00 | 0.00 | 0.00 | 24 | 1007.9 |
| 20260509030108 | 75 | 162 | 1.7 | 2.6 | 0.00 | 0.00 | 0.00 | 24 | 1007.8 |
| 20260509025604 | 75 | 192 | 0.0 | 2.6 | 0.00 | 0.00 | 0.00 | 26 | 1007.8 |
| 20260509025100 | 75 | 215 | 0.0 | 1.7 | 0.00 | 0.00 | 0.00 | 26 | 1007.7 |
| 20260509024556 | 74 | 220 | 1.7 | 1.7 | 0.00 | 0.00 | 0.00 | 28 | 1007.8 |
| 20260509024052 | 75 | 220 | 1.7 | 2.6 | 0.00 | 0.00 | 0.00 | 27 | 1007.8 |
| 20260509023550 | 77 | 90 | 0.0 | 0.0 | 0.00 | 0.00 | 0.00 | 23 | 1007.5 |
| 20260509023047 | 77 | 90 | 0.0 | 0.9 | 0.00 | 0.00 | 0.00 | 23 | 1007.5 |
| 20260509022543 | 77 | 90 | 0.0 | 0.0 | 0.00 | 0.00 | 0.00 | 22 | 1007.5 |
| 20260509022041 | 77 | 90 | 0.0 | 0.9 | 0.00 | 0.00 | 0.00 | 22 | 1007.4 |
| 20260509021538 | 77 | 90 | 0.0 | 0.0 | 0.00 | 0.00 | 0.00 | 21 | 1007.3 |
| 20260509021035 | 77 | 83 | 0.0 | 0.9 | 0.00 | 0.00 | 0.00 | 22 | 1007.5 |
| 20260509020533 | 77 | 106 | 0.0 | 1.7 | 0.00 | 0.00 | 0.00 | 23 | 1007.1 |
| 20260509020030 | 78 | 81 | 0.0 | 0.0 | 0.00 | 0.00 | 0.00 | 24 | 1007.3 |
| 20260509015529 | 79 | 81 | 0.0 | 0.0 | 0.00 | 0.00 | 0.00 | 22 | 1007.1 |
| 20260509015026 | 79 | 90 | 0.0 | 0.0 | 0.00 | 0.00 | 0.00 | 21 | 1006.9 |
| 20260509014522 | 80 | 99 | 0.0 | 0.0 | 0.00 | 0.00 | 0.00 | 22 | 1007.2 |
| 20260509014018 | 80 | 99 | 0.0 | 0.0 | 0.00 | 0.00 | 0.00 | 21 | 1006.9 |
| 20260509013516 | 81 | 99 | 0.0 | 0.9 | 0.00 | 0.00 | 0.00 | 21 | 1006.8 |
| 20260509013011 | 82 | 90 | 0.0 | 0.0 | 0.00 | 0.00 | 0.00 | 20 | 1006.5 |
| 20260509012508 | 82 | 29 | 0.0 | 0.0 | 0.00 | 0.00 | 0.00 | 18 | 1006.7 |
| 20260509012005 | 83 | 29 | 0.0 | 0.0 | 0.00 | 0.00 | 0.00 | 18 | 1006.7 |
| 20260509011503 | 84 | 29 | 0.0 | 0.0 | 0.00 | 0.00 | 0.00 | 16 | 1006.8 |
| 20260509011000 | 84 | 29 | 0.0 | 0.0 | 0.00 | 0.00 | 0.00 | 17 | 1006.7 |
| 20260509010457 | 84 | 8 | 0.0 | 1.7 | 0.00 | 0.00 | 0.00 | 16 | 1006.7 |
| 20260509005954 | 85 | 355 | 1.7 | 2.6 | 0.00 | 0.00 | 0.00 | 16 | 1006.4 |
| 20260509005452 | 86 | 33 | 1.7 | 2.6 | 0.00 | 0.00 | 0.00 | 16 | 1006.5 |
| 20260509004952 | 86 | 57 | 0.0 | 1.7 | 0.00 | 0.00 | 0.00 | 15 | 1006.4 |
| 20260509004449 | 86 | 28 | 1.7 | 2.6 | 0.00 | 0.00 | 0.00 | 15 | 1006.3 |
| 20260509003946 | 86 | 113 | 1.7 | 4.3 | 0.00 | 0.00 | 0.00 | 14 | 1006.5 |
| 20260509003445 | 88 | 357 | 2.6 | 2.6 | 0.00 | 0.00 | 0.00 | 13 | 1006.6 |
| 20260509002941 | 88 | 54 | 0.0 | 2.6 | 0.00 | 0.00 | 0.00 | 14 | 1006.4 |
| 20260509002439 | 87 | 41 | 1.7 | 6.1 | 0.00 | 0.00 | 0.00 | 13 | 1006.2 |
| 20260509001936 | 88 | 52 | 4.3 | 7.8 | 0.00 | 0.00 | 0.00 | 13 | 1006.3 |
| 20260509001432 | 88 | 39 | 5.2 | 6.1 | 0.00 | 0.00 | 0.00 | 13 | 1006.4 |
| 20260509000929 | 89 | 52 | 4.3 | 5.2 | 0.00 | 0.00 | 0.00 | 13 | 1006.3 |
| 20260509000427 | 89 | 5 | 2.6 | 2.6 | 0.00 | 0.00 | 0.00 | 12 | 1006.3 |
| 20260508235923 | 90 | 90 | 0.0 | 2.6 | 0.00 | 0.00 | 0.00 | 13 | 1006.5 |
| 20260508235421 | 88 | 90 | 0.0 | 2.6 | 0.00 | 0.00 | 0.00 | 12 | 1006.2 |
| 20260508234917 | 88 | 50 | 2.6 | 6.1 | 0.00 | 0.00 | 0.00 | 13 | 1006.4 |
| 20260508234414 | 89 | 42 | 2.6 | 5.2 | 0.00 | 0.00 | 0.00 | 13 | 1006.2 |
| 20260508233912 | 88 | 41 | 3.5 | 6.1 | 0.00 | 0.00 | 0.00 | 12 | 1006.2 |
| 20260508233411 | 89 | 29 | 2.6 | 10.4 | 0.00 | 0.00 | 0.00 | 13 | 1006.4 |
| 20260508232908 | 90 | 10 | 4.3 | 5.2 | 0.00 | 0.00 | 0.00 | 13 | 1006.4 |
| 20260508232404 | 91 | 101 | 0.0 | 4.3 | 0.00 | 0.00 | 0.00 | 12 | 1006.2 |
| 20260508231902 | 91 | 63 | 0.9 | 2.6 | 0.00 | 0.00 | 0.00 | 12 | 1006.4 |
| 20260508231359 | 91 | 90 | 1.7 | 2.6 | 0.00 | 0.00 | 0.00 | 12 | 1006.2 |
| 20260508230856 | 90 | 286 | 0.9 | 4.3 | 0.00 | 0.00 | 0.00 | 12 | 1006.3 |
| 20260508230352 | 89 | 210 | 1.7 | 5.2 | 0.00 | 0.00 | 0.00 | 12 | 1006.4 |
| 20260508225850 | 90 | 328 | 0.0 | 2.6 | 0.00 | 0.00 | 0.00 | 12 | 1006.2 |
| 20260508225346 | 89 | 0 | 3.5 | 5.2 | 0.00 | 0.00 | 0.00 | 12 | 1006.2 |
| 20260508224844 | 89 | 19 | 3.5 | 6.1 | 0.00 | 0.00 | 0.00 | 12 | 1006.3 |
| 20260508224341 | 91 | 270 | 2.6 | 3.5 | 0.00 | 0.00 | 0.00 | 11 | 1006.3 |
| 20260508223839 | 89 | 345 | 3.5 | 11.3 | 0.00 | 0.00 | 0.00 | 13 | 1006.2 |
| 20260508223336 | 91 | 336 | 0.0 | 4.3 | 0.00 | 0.00 | 0.00 | 11 | 1006.2 |
| 20260508222833 | 90 | 325 | 2.6 | 7.0 | 0.00 | 0.00 | 0.00 | 11 | 1006.3 |
| 20260508222330 | 91 | 340 | 0.9 | 7.0 | 0.00 | 0.00 | 0.00 | 12 | 1006.4 |
| 20260508221827 | 91 | 32 | 1.7 | 2.6 | 0.00 | 0.00 | 0.00 | 12 | 1006.4 |
| 20260508221322 | 89 | 165 | 0.9 | 6.1 | 0.00 | 0.00 | 0.00 | 13 | 1006.3 |
| 20260508220819 | 91 | 0 | 0.0 | 3.5 | 0.00 | 0.00 | 0.00 | 13 | 1006.3 |
| 20260508220315 | 91 | 246 | 0.0 | 3.5 | 0.00 | 0.00 | 0.00 | 13 | 1006.4 |
| 20260508215812 | 90 | 277 | 0.0 | 4.3 | 0.00 | 0.00 | 0.00 | 13 | 1006.6 |
| 20260508215309 | 91 | 90 | 0.9 | 1.7 | 0.00 | 0.00 | 0.00 | 13 | 1006.4 |
| 20260508214806 | 90 | 229 | 1.7 | 4.3 | 0.00 | 0.00 | 0.00 | 14 | 1006.6 |
| 20260508214303 | 90 | 234 | 2.6 | 5.2 | 0.00 | 0.00 | 0.00 | 14 | 1006.4 |
| 20260508213759 | 90 | 270 | 2.6 | 2.6 | 0.00 | 0.00 | 0.00 | 13 | 1006.7 |
| 20260508213256 | 89 | 161 | 2.6 | 4.3 | 0.00 | 0.00 | 0.00 | 14 | 1006.9 |
| 20260508212753 | 88 | 203 | 1.7 | 3.5 | 0.00 | 0.00 | 0.00 | 14 | 1006.9 |
| 20260508212249 | 88 | 171 | 1.7 | 4.3 | 0.00 | 0.00 | 0.00 | 15 | 1006.9 |
| 20260508211745 | 89 | 112 | 2.6 | 3.5 | 0.00 | 0.00 | 0.00 | 15 | 1006.9 |
| 20260508211240 | 88 | 169 | 3.5 | 5.2 | 0.00 | 0.00 | 0.00 | 14 | 1006.7 |
| 20260508210738 | 88 | 155 | 2.6 | 3.5 | 0.00 | 0.00 | 0.00 | 15 | 1006.9 |
| 20260508210235 | 88 | 270 | 0.0 | 3.5 | 0.00 | 0.00 | 0.00 | 14 | 1006.9 |
| 20260508205732 | 87 | 168 | 1.7 | 5.2 | 0.00 | 0.00 | 0.00 | 15 | 1007.3 |
| 20260508205228 | 87 | 278 | 0.0 | 7.8 | 0.00 | 0.00 | 0.00 | 15 | 1007.1 |
| 20260508204725 | 89 | 241 | 2.6 | 2.6 | 0.00 | 0.00 | 0.00 | 15 | 1007.3 |
| 20260508204221 | 87 | 23 | 0.9 | 2.6 | 0.00 | 0.00 | 0.00 | 16 | 1007.3 |
| 20260508203717 | 85 | 225 | 4.3 | 5.2 | 0.00 | 0.00 | 0.00 | 17 | 1007.4 |
| 20260508203213 | 86 | 135 | 1.7 | 6.1 | 0.00 | 0.00 | 0.00 | 17 | 1007.5 |
| 20260508202710 | 87 | 168 | 1.7 | 4.3 | 0.00 | 0.00 | 0.00 | 17 | 1007.6 |
| 20260508202207 | 86 | 98 | 4.3 | 5.2 | 0.00 | 0.00 | 0.00 | 17 | 1007.7 |
| 20260508201704 | 86 | 130 | 3.5 | 7.8 | 0.00 | 0.00 | 0.00 | 18 | 1007.7 |
| 20260508201200 | 87 | 173 | 4.3 | 9.6 | 0.00 | 0.00 | 0.00 | 17 | 1007.9 |
| 20260508200657 | 87 | 240 | 2.6 | 4.3 | 0.00 | 0.00 | 0.00 | 18 | 1008.0 |
| 20260508200153 | 87 | 270 | 0.0 | 4.3 | 0.00 | 0.00 | 0.00 | 19 | 1007.9 |
| 20260508195650 | 87 | 150 | 1.7 | 5.2 | 0.00 | 0.00 | 0.00 | 19 | 1008.2 |
| 20260508195147 | 86 | 117 | 0.0 | 5.2 | 0.00 | 0.00 | 0.00 | 20 | 1008.0 |
| 20260508194643 | 86 | 297 | 4.3 | 4.3 | 0.00 | 0.00 | 0.00 | 22 | 1008.2 |
| 20260508194140 | 86 | 8 | 1.7 | 4.3 | 0.00 | 0.00 | 0.00 | 23 | 1008.2 |
| 20260508193637 | 84 | 191 | 2.6 | 6.1 | 0.00 | 0.00 | 0.00 | 23 | 1008.4 |
| 20260508193134 | 86 | 165 | 3.5 | 6.1 | 0.00 | 0.00 | 0.00 | 22 | 1008.5 |
| 20260508192630 | 84 | 49 | 1.7 | 5.2 | 0.00 | 0.00 | 0.00 | 23 | 1008.4 |
| 20260508192128 | 84 | 283 | 0.9 | 3.5 | 0.00 | 0.00 | 0.00 | 23 | 1008.7 |
| 20260508191624 | 84 | 75 | 0.9 | 3.5 | 0.00 | 0.00 | 0.00 | 24 | 1008.7 |
| 20260508191121 | 84 | 210 | 1.7 | 3.5 | 0.00 | 0.00 | 0.00 | 26 | 1008.6 |
| 20260508190619 | 84 | 166 | 4.3 | 5.2 | 0.00 | 0.00 | 0.00 | 26 | 1008.6 |
| 20260508190115 | 83 | 106 | 4.3 | 4.3 | 0.00 | 0.00 | 0.00 | 26 | 1008.8 |
| 20260508185612 | 84 | 185 | 2.6 | 4.3 | 0.00 | 0.00 | 0.00 | 26 | 1008.9 |
| 20260508185109 | 82 | 151 | 0.0 | 4.3 | 0.00 | 0.00 | 0.00 | 26 | 1008.9 |
| 20260508184606 | 81 | 156 | 5.2 | 6.1 | 0.00 | 0.00 | 0.00 | 27 | 1008.9 |
| 20260508184103 | 83 | 204 | 1.7 | 3.5 | 0.00 | 0.00 | 0.00 | 26 | 1009.1 |
| 20260508183600 | 82 | 0 | 3.5 | 3.5 | 0.00 | 0.00 | 0.00 | 27 | 1009.2 |
| 20260508183056 | 81 | 320 | 0.0 | 2.6 | 0.00 | 0.00 | 0.00 | 27 | 1009.2 |
| 20260508182552 | 81 | 189 | 2.6 | 4.3 | 0.00 | 0.00 | 0.00 | 28 | 1009.5 |
| 20260508182049 | 82 | 229 | 2.6 | 4.3 | 0.00 | 0.00 | 0.00 | 29 | 1009.5 |
| 20260508181544 | 81 | 235 | 3.5 | 4.3 | 0.00 | 0.00 | 0.00 | 30 | 1009.5 |
| 20260508181042 | 82 | 170 | 2.6 | 2.6 | 0.00 | 0.00 | 0.00 | 28 | 1009.9 |
| 20260508180538 | 80 | 41 | 3.5 | 3.5 | 0.00 | 0.00 | 0.00 | 31 | 1009.9 |
| 20260508180035 | 79 | 356 | 1.7 | 3.5 | 0.00 | 0.00 | 0.00 | 31 | 1009.9 |
| 20260508175531 | 80 | 297 | 2.6 | 4.3 | 0.00 | 0.00 | 0.00 | 32 | 1010.0 |
| 20260508175029 | 79 | 287 | 5.2 | 5.2 | 0.00 | 0.00 | 0.00 | 32 | 1010.2 |
| 20260508174526 | 80 | 254 | 1.7 | 2.6 | 0.00 | 0.00 | 0.00 | 33 | 1010.0 |
| 20260508174023 | 78 | 95 | 0.0 | 4.3 | 0.00 | 0.00 | 0.00 | 35 | 1010.1 |
| 20260508173520 | 78 | 212 | 1.7 | 3.5 | 0.00 | 0.00 | 0.00 | 36 | 1010.1 |
| 20260508173016 | 77 | 270 | 0.0 | 5.2 | 0.00 | 0.00 | 0.00 | 37 | 1010.1 |
| 20260508172513 | 77 | 353 | 0.0 | 3.5 | 0.00 | 0.00 | 0.00 | 36 | 1010.3 |
| 20260508172009 | 77 | 77 | 1.7 | 3.5 | 0.00 | 0.00 | 0.00 | 37 | 1010.6 |
| 20260508171506 | 78 | 135 | 0.0 | 2.6 | 0.00 | 0.00 | 0.00 | 37 | 1010.7 |
| 20260508171003 | 77 | 180 | 0.0 | 3.5 | 0.00 | 0.00 | 0.00 | 36 | 1010.7 |
| 20260508170500 | 75 | 168 | 1.7 | 4.3 | 0.00 | 0.00 | 0.00 | 33 | 1010.7 |
| 20260508165957 | 76 | 68 | 1.7 | 2.6 | 0.00 | 0.00 | 0.00 | 41 | 1010.6 |
| 20260508165455 | 76 | 250 | 2.6 | 4.3 | 0.00 | 0.00 | 0.00 | 43 | 1010.7 |
| 20260508164950 | 76 | 19 | 0.0 | 2.6 | 0.00 | 0.00 | 0.00 | 45 | 1010.6 |
| 20260508164448 | 75 | 108 | 1.7 | 2.6 | 0.00 | 0.00 | 0.00 | 45 | 1010.8 |
| 20260508163944 | 74 | 123 | 1.7 | 3.5 | 0.00 | 0.00 | 0.00 | 47 | 1010.7 |
| 20260508163442 | 74 | 225 | 1.7 | 4.3 | 0.00 | 0.00 | 0.00 | 48 | 1011.0 |
| 20260508162938 | 73 | 176 | 1.7 | 5.2 | 0.00 | 0.00 | 0.00 | 50 | 1010.9 |
| 20260508162436 | 72 | 148 | 1.7 | 6.1 | 0.00 | 0.00 | 0.00 | 50 | 1010.8 |
| 20260508161932 | 71 | 231 | 1.7 | 4.3 | 0.00 | 0.00 | 0.00 | 51 | 1011.0 |
| 20260508161429 | 71 | 163 | 4.3 | 5.2 | 0.00 | 0.00 | 0.00 | 53 | 1010.9 |
| 20260508160927 | 71 | 225 | 2.6 | 5.2 | 0.00 | 0.00 | 0.00 | 52 | 1011.0 |
| 20260508160426 | 70 | 203 | 0.9 | 7.8 | 0.00 | 0.00 | 0.00 | 52 | 1011.2 |
| 20260508155921 | 71 | 164 | 3.5 | 5.2 | 0.00 | 0.00 | 0.00 | 54 | 1010.9 |
| 20260508155418 | 69 | 225 | 1.7 | 6.1 | 0.00 | 0.00 | 0.00 | 56 | 1011.1 |
| 20260508154915 | 69 | 164 | 3.5 | 7.0 | 0.00 | 0.00 | 0.00 | 56 | 1011.1 |
| 20260508154413 | 70 | 158 | 2.6 | 4.3 | 0.00 | 0.00 | 0.00 | 57 | 1011.0 |
| 20260508153909 | 68 | 164 | 2.6 | 7.0 | 0.00 | 0.00 | 0.00 | 58 | 1011.2 |
| 20260508153406 | 67 | 170 | 2.6 | 6.1 | 0.00 | 0.00 | 0.00 | 59 | 1011.1 |
| 20260508152902 | 68 | 158 | 3.5 | 6.1 | 0.00 | 0.00 | 0.00 | 59 | 1011.3 |
| 20260508152359 | 67 | 157 | 3.5 | 7.0 | 0.00 | 0.00 | 0.00 | 59 | 1011.4 |
| 20260508151855 | 67 | 156 | 4.3 | 7.8 | 0.00 | 0.00 | 0.00 | 59 | 1011.3 |
| 20260508151353 | 66 | 255 | 1.7 | 4.3 | 0.00 | 0.00 | 0.00 | 62 | 1011.4 |
| 20260508150849 | 65 | 238 | 5.2 | 10.4 | 0.00 | 0.00 | 0.00 | 63 | 1011.3 |
| 20260508150346 | 65 | 130 | 2.6 | 7.0 | 0.00 | 0.00 | 0.00 | 64 | 1011.4 |
| 20260508145842 | 64 | 160 | 7.0 | 8.7 | 0.00 | 0.00 | 0.00 | 64 | 1011.4 |
| 20260508145338 | 65 | 185 | 3.5 | 3.5 | 0.00 | 0.00 | 0.00 | 65 | 1011.4 |
| 20260508144835 | 63 | 167 | 0.0 | 4.3 | 0.00 | 0.00 | 0.00 | 67 | 1011.4 |
| 20260508144333 | 63 | 167 | 2.6 | 5.2 | 0.00 | 0.00 | 0.00 | 68 | 1011.3 |
| 20260508143830 | 63 | 180 | 1.7 | 6.1 | 0.00 | 0.00 | 0.00 | 67 | 1011.6 |
| 20260508143327 | 62 | 215 | 0.9 | 6.1 | 0.00 | 0.00 | 0.00 | 68 | 1011.6 |
| 20260508142824 | 62 | 161 | 3.5 | 6.1 | 0.00 | 0.00 | 0.00 | 69 | 1011.6 |
| 20260508142321 | 62 | 180 | 2.6 | 6.1 | 0.00 | 0.00 | 0.00 | 70 | 1011.6 |
| 20260508141817 | 61 | 153 | 3.5 | 6.1 | 0.00 | 0.00 | 0.00 | 71 | 1011.8 |
| 20260508141314 | 61 | 199 | 2.6 | 7.8 | 0.00 | 0.00 | 0.00 | 71 | 1011.5 |
| 20260508140811 | 61 | 165 | 7.8 | 10.4 | 0.00 | 0.00 | 0.00 | 71 | 1011.3 |
| 20260508140308 | 61 | 150 | 4.3 | 5.2 | 0.00 | 0.00 | 0.00 | 72 | 1011.4 |
| 20260508135804 | 60 | 159 | 6.1 | 7.8 | 0.00 | 0.00 | 0.00 | 74 | 1011.3 |
| 20260508135300 | 60 | 176 | 7.0 | 7.0 | 0.00 | 0.00 | 0.00 | 74 | 1011.3 |
| 20260508134756 | 59 | 166 | 5.2 | 6.1 | 0.00 | 0.00 | 0.00 | 75 | 1011.4 |
| 20260508134254 | 59 | 183 | 1.7 | 5.2 | 0.00 | 0.00 | 0.00 | 76 | 1011.3 |
| 20260508133750 | 58 | 146 | 2.6 | 3.5 | 0.00 | 0.00 | 0.00 | 78 | 1011.4 |
| 20260508133248 | 57 | 178 | 2.6 | 3.5 | 0.00 | 0.00 | 0.00 | 79 | 1011.3 |
| 20260508132745 | 56 | 186 | 2.6 | 3.5 | 0.00 | 0.00 | 0.00 | 79 | 1011.2 |
| 20260508132243 | 56 | 172 | 1.7 | 3.5 | 0.00 | 0.00 | 0.00 | 79 | 1011.3 |
| 20260508131738 | 56 | 201 | 1.7 | 1.7 | 0.00 | 0.00 | 0.00 | 80 | 1011.3 |
| 20260508131235 | 56 | 103 | 0.9 | 2.6 | 0.00 | 0.00 | 0.00 | 83 | 1011.4 |
| 20260508130731 | 54 | 81 | 0.0 | 1.7 | 0.00 | 0.00 | 0.00 | 84 | 1011.3 |
| 20260508130229 | 54 | 99 | 0.0 | 0.0 | 0.00 | 0.00 | 0.00 | 86 | 1011.1 |
| 20260508125724 | 52 | 23 | 0.9 | 1.7 | 0.00 | 0.00 | 0.00 | 86 | 1011.1 |
| 20260508125221 | 51 | 41 | 0.0 | 1.7 | 0.00 | 0.00 | 0.00 | 86 | 1011.0 |
| 20260508124719 | 50 | 35 | 0.0 | 0.0 | 0.00 | 0.00 | 0.00 | 87 | 1010.9 |
| 20260508124216 | 49 | 35 | 0.0 | 0.0 | 0.00 | 0.00 | 0.00 | 87 | 1011.0 |
| 20260508123714 | 48 | 17 | 2.6 | 2.6 | 0.00 | 0.00 | 0.00 | 87 | 1010.9 |
| 20260508123212 | 49 | 12 | 0.9 | 0.9 | 0.00 | 0.00 | 0.00 | 87 | 1011.0 |
| 20260508122708 | 49 | 0 | 0.9 | 0.9 | 0.00 | 0.00 | 0.00 | 87 | 1010.9 |
| 20260508122205 | 48 | 186 | 0.0 | 0.9 | 0.00 | 0.00 | 0.00 | 88 | 1011.0 |
| 20260508121702 | 49 | 196 | 0.0 | 1.7 | 0.00 | 0.00 | 0.00 | 88 | 1011.0 |
| 20260508121201 | 49 | 173 | 0.0 | 0.9 | 0.00 | 0.00 | 0.00 | 88 | 1011.1 |
| 20260508120658 | 49 | 188 | 0.0 | 2.6 | 0.00 | 0.00 | 0.00 | 88 | 1011.1 |
| 20260508120156 | 49 | 168 | 0.0 | 1.7 | 0.00 | 0.00 | 0.00 | 88 | 1011.2 |
| 20260508115653 | 49 | 148 | 2.6 | 4.3 | 0.00 | 0.00 | 0.00 | 88 | 1011.2 |
| 20260508115150 | 50 | 164 | 4.3 | 4.3 | 0.00 | 0.00 | 0.00 | 88 | 1011.1 |
| 20260508114647 | 50 | 168 | 0.0 | 2.6 | 0.00 | 0.00 | 0.00 | 88 | 1011.0 |
| 20260508114143 | 50 | 154 | 0.9 | 1.7 | 0.00 | 0.00 | 0.00 | 88 | 1010.7 |
| 20260508113640 | 50 | 14 | 0.0 | 0.9 | 0.00 | 0.00 | 0.00 | 88 | 1010.7 |
| 20260508113138 | 50 | 106 | 0.0 | 0.0 | 0.00 | 0.00 | 0.00 | 88 | 1010.6 |
| 20260508112629 | 50 | 29 | 0.0 | 0.9 | 0.00 | 0.00 | 0.00 | 88 | 1010.8 |
| 20260508112126 | 50 | 63 | 0.9 | 1.7 | 0.00 | 0.00 | 0.00 | 87 | 1010.6 |
| 20260508111622 | 50 | 0 | 1.7 | 1.7 | 0.00 | 0.00 | 0.00 | 87 | 1010.4 |
| 20260508111120 | 51 | 5 | 1.7 | 2.6 | 0.00 | 0.00 | 0.00 | 87 | 1010.4 |
| 20260508110618 | 51 | 26 | 0.0 | 1.7 | 0.00 | 0.00 | 0.00 | 87 | 1010.6 |
| 20260508110113 | 50 | 21 | 1.7 | 1.7 | 0.00 | 0.00 | 0.00 | 87 | 1010.7 |
| 20260508105608 | 50 | 8 | 0.0 | 0.0 | 0.00 | 0.00 | 0.00 | 87 | 1010.8 |
| 20260508105105 | 50 | 8 | 0.0 | 0.0 | 0.00 | 0.00 | 0.00 | 86 | 1010.6 |
| 20260508104603 | 51 | 4 | 0.0 | 1.7 | 0.00 | 0.00 | 0.00 | 86 | 1010.3 |
| 20260508104059 | 51 | 23 | 0.0 | 0.0 | 0.00 | 0.00 | 0.00 | 86 | 1010.4 |
| 20260508103557 | 51 | 23 | 0.0 | 0.9 | 0.00 | 0.00 | 0.00 | 86 | 1010.4 |
| 20260508103054 | 51 | 14 | 0.0 | 0.0 | 0.00 | 0.00 | 0.00 | 85 | 1010.7 |
| 20260508102551 | 51 | 8 | 0.0 | 0.0 | 0.00 | 0.00 | 0.00 | 85 | 1010.2 |
| 20260508102049 | 51 | 8 | 0.0 | 1.7 | 0.00 | 0.00 | 0.00 | 84 | 1010.8 |
| 20260508101546 | 52 | 63 | 0.0 | 0.9 | 0.00 | 0.00 | 0.00 | 84 | 1010.6 |
| 20260508101043 | 52 | 277 | 0.0 | 0.0 | 0.00 | 0.00 | 0.00 | 84 | 1010.7 |
| 20260508100541 | 52 | 277 | 0.0 | 0.0 | 0.00 | 0.00 | 0.00 | 83 | 1010.4 |
| 20260508100038 | 52 | 99 | 0.0 | 0.9 | 0.00 | 0.00 | 0.00 | 83 | 1010.4 |
| 20260508095535 | 52 | 90 | 0.0 | 0.0 | 0.00 | 0.00 | 0.00 | 83 | 1010.7 |
| 20260508095032 | 52 | 90 | 0.0 | 0.9 | 0.00 | 0.00 | 0.00 | 83 | 1010.8 |
| 20260508094529 | 53 | 345 | 0.0 | 0.9 | 0.00 | 0.00 | 0.00 | 82 | 1010.8 |
| 20260508094026 | 53 | 169 | 0.9 | 0.9 | 0.00 | 0.00 | 0.00 | 82 | 1010.3 |
| 20260508093523 | 53 | 105 | 0.0 | 1.7 | 0.00 | 0.00 | 0.00 | 82 | 1010.7 |
| 20260508093021 | 53 | 287 | 0.0 | 1.7 | 0.00 | 0.00 | 0.00 | 81 | 1010.8 |
| 20260508092518 | 53 | 132 | 1.7 | 1.7 | 0.00 | 0.00 | 0.00 | 81 | 1010.8 |
| 20260508092017 | 53 | 148 | 0.0 | 2.6 | 0.00 | 0.00 | 0.00 | 81 | 1010.8 |
| 20260508091513 | 54 | 139 | 1.7 | 3.5 | 0.00 | 0.00 | 0.00 | 81 | 1010.6 |
| 20260508091010 | 53 | 41 | 0.0 | 1.7 | 0.00 | 0.00 | 0.00 | 80 | 1010.7 |
| 20260508090508 | 54 | 105 | 0.0 | 1.7 | 0.00 | 0.00 | 0.00 | 80 | 1010.7 |
| 20260508090005 | 54 | 117 | 0.0 | 1.7 | 0.00 | 0.00 | 0.00 | 80 | 1010.9 |
| 20260508085501 | 54 | 111 | 0.0 | 1.7 | 0.00 | 0.00 | 0.00 | 79 | 1010.9 |
| 20260508084958 | 55 | 90 | 0.9 | 2.6 | 0.00 | 0.00 | 0.00 | 78 | 1010.4 |
| 20260508084454 | 55 | 151 | 1.7 | 2.6 | 0.00 | 0.00 | 0.00 | 78 | 1010.7 |
| 20260508083952 | 56 | 124 | 0.0 | 1.7 | 0.00 | 0.00 | 0.00 | 77 | 1010.9 |
| 20260508083449 | 56 | 246 | 0.0 | 2.6 | 0.00 | 0.00 | 0.00 | 77 | 1011.1 |
| 20260508082944 | 56 | 154 | 0.0 | 2.6 | 0.00 | 0.00 | 0.00 | 76 | 1010.9 |
| 20260508082442 | 57 | 123 | 0.0 | 2.6 | 0.00 | 0.00 | 0.00 | 76 | 1010.9 |
| 20260508081939 | 57 | 139 | 1.7 | 2.6 | 0.00 | 0.00 | 0.00 | 75 | 1011.1 |
| 20260508081436 | 57 | 174 | 0.9 | 2.6 | 0.00 | 0.00 | 0.00 | 75 | 1011.1 |
| 20260508080932 | 57 | 180 | 0.9 | 1.7 | 0.00 | 0.00 | 0.00 | 75 | 1011.1 |
| 20260508080430 | 57 | 131 | 1.7 | 2.6 | 0.00 | 0.00 | 0.00 | 74 | 1011.0 |
| 20260508075927 | 58 | 107 | 3.5 | 3.5 | 0.00 | 0.00 | 0.00 | 73 | 1011.1 |
| 20260508075424 | 58 | 112 | 1.7 | 3.5 | 0.00 | 0.00 | 0.00 | 73 | 1011.0 |
| 20260508074922 | 58 | 110 | 1.7 | 2.6 | 0.00 | 0.00 | 0.00 | 72 | 1011.0 |
| 20260508074419 | 59 | 117 | 2.6 | 4.3 | 0.00 | 0.00 | 0.00 | 71 | 1011.1 |
| 20260508073915 | 59 | 150 | 4.3 | 7.0 | 0.00 | 0.00 | 0.00 | 70 | 1011.0 |
| 20260508073413 | 60 | 159 | 3.5 | 8.7 | 0.00 | 0.00 | 0.00 | 70 | 1011.0 |
| 20260508072910 | 60 | 173 | 4.3 | 6.1 | 0.00 | 0.00 | 0.00 | 69 | 1011.4 |
| 20260508072406 | 60 | 179 | 3.5 | 6.1 | 0.00 | 0.00 | 0.00 | 69 | 1011.3 |
| 20260508071904 | 60 | 157 | 3.5 | 5.2 | 0.00 | 0.00 | 0.00 | 69 | 1011.5 |
| 20260508071402 | 60 | 164 | 4.3 | 5.2 | 0.00 | 0.00 | 0.00 | 68 | 1011.3 |
| 20260508070859 | 60 | 180 | 2.6 | 5.2 | 0.00 | 0.00 | 0.00 | 68 | 1011.3 |
| 20260508070357 | 61 | 175 | 0.9 | 5.2 | 0.00 | 0.00 | 0.00 | 67 | 1011.6 |
| 20260508065854 | 61 | 180 | 3.5 | 4.3 | 0.00 | 0.00 | 0.00 | 66 | 1011.6 |